Location: Plainartige
(45.6866°N, 1.7993°E)
Time: 01:43:01
(UTC+00:00)

RS-15 - Pass Details

Date: 03 July 2022
Orbit: 1881 x 2163 km, 64.8° (Epoch: 10 August)

Event Time Altitude Azimuth Distance (km) Brightness Sun altitude
Rises 00:43:45 0° 322° (NW) 5,699 11.1 -20.5°
Reaches altitude 10° 00:47:34 10° 315° (NW) 4,684 10.4 -20.4°
Maximum altitude 00:58:18 38° 254° (WSW) 2,930 8.7 -19.9°
Enters shadow 01:04:04 25° 209° (SSW) 3,489 8.7 -19.7°
